Time,TemperatureF,DewpointF,PressureIn,WindDirection,WindDirectionDegrees,WindSpeedMPH,WindSpeedGustMPH,Humidity,HourlyPrecipIn,Conditions,Clouds,dailyrainin,SoftwareType,DateUTC
2013-10-17 00:00:00,50.1,48.4,29.92,SW,218,0.0,11.0,94,0.00,,,0.00,Wunderground v.1.15,2013-10-17 04:00:00,
2013-10-17 00:05:00,50.3,48.6,29.92,SW,217,0.0,11.0,94,0.00,,,0.00,Wunderground v.1.15,2013-10-17 04:05:00,
2013-10-17 00:10:00,50.4,48.7,29.92,SW,218,1.0,11.0,94,0.00,,,0.00,Wunderground v.1.15,2013-10-17 04:10:00,
2013-10-17 00:15:00,50.5,49.1,29.92,SW,217,0.0,11.0,95,0.00,,,0.00,Wunderground v.1.15,2013-10-17 04:15:00,
2013-10-17 00:20:00,50.6,49.2,29.92,SW,218,0.0,11.0,95,0.00,,,0.00,Wunderground v.1.15,2013-10-17 04:20:00,
2013-10-17 00:25:00,50.7,49.3,29.92,SW,217,0.0,11.0,95,0.00,,,0.00,Wunderground v.1.15,2013-10-17 04:25:00,
2013-10-17 00:30:00,50.8,49.4,29.91,SSW,202,0.0,11.0,95,0.00,,,0.00,Wunderground v.1.15,2013-10-17 04:30:00,
2013-10-17 00:40:00,51.1,49.7,29.91,South,191,2.0,11.0,95,0.00,,,0.00,Wunderground v.1.15,2013-10-17 04:40:00,
2013-10-17 00:45:00,50.9,49.5,29.91,South,191,2.0,11.0,95,0.00,,,0.00,Wunderground v.1.15,2013-10-17 04:45:00,
2013-10-17 00:50:00,50.8,49.4,29.91,South,190,2.0,2.0,95,0.00,,,0.00,Wunderground v.1.15,2013-10-17 04:50:00,
2013-10-17 00:55:00,50.8,49.4,29.91,South,190,1.0,11.0,95,0.00,,,0.00,Wunderground v.1.15,2013-10-17 04:55:00,
2013-10-17 01:00:00,50.9,49.5,29.91,South,190,0.0,11.0,95,0.00,,,0.00,Wunderground v.1.15,2013-10-17 05:00:00,
2013-10-17 01:10:00,51.3,49.9,29.90,South,190,1.0,11.0,95,0.00,,,0.00,Wunderground v.1.15,2013-10-17 05:10:00,
2013-10-17 01:15:00,51.6,50.5,29.90,South,191,2.0,11.0,96,0.00,,,0.00,Wunderground v.1.15,2013-10-17 05:15:00,
2013-10-17 01:20:00,51.8,50.4,29.90,SSW,197,2.0,11.0,95,0.00,,,0.00,Wunderground v.1.15,2013-10-17 05:20:00,
2013-10-17 01:25:00,51.8,50.4,29.90,SSW,200,2.0,11.0,95,0.00,,,0.00,Wunderground v.1.15,2013-10-17 05:25:00,
2013-10-17 01:35:00,52.2,51.1,29.90,South,190,2.0,11.0,96,0.00,,,0.00,Wunderground v.1.15,2013-10-17 05:35:00,
2013-10-17 01:40:00,52.4,51.0,29.90,South,181,3.0,3.0,95,0.00,,,0.00,Wunderground v.1.15,2013-10-17 05:40:00,
2013-10-17 01:45:00,52.4,51.0,29.90,South,190,3.0,11.0,95,0.00,,,0.00,Wunderground v.1.15,2013-10-17 05:45:00,
2013-10-17 01:50:00,52.3,50.9,29.90,South,190,2.0,11.0,95,0.00,,,0.00,Wunderground v.1.15,2013-10-17 05:50:00,
2013-10-17 01:55:00,52.5,51.1,29.90,South,191,2.0,11.0,95,0.00,,,0.00,Wunderground v.1.15,2013-10-17 05:55:00,
2013-10-17 02:05:00,53.3,51.9,29.90,South,176,3.0,4.0,95,0.00,,,0.00,Wunderground v.1.15,2013-10-17 06:05:00,
2013-10-17 02:10:00,53.5,52.1,29.90,South,174,4.0,4.0,95,0.00,,,0.00,Wunderground v.1.15,2013-10-17 06:10:00,
2013-10-17 02:15:00,53.4,52.0,29.89,SSE,167,4.0,11.0,95,0.00,,,0.00,Wunderground v.1.15,2013-10-17 06:15:00,
2013-10-17 02:25:00,52.9,51.2,29.89,SSE,167,2.0,11.0,94,0.00,,,0.00,Wunderground v.1.15,2013-10-17 06:25:00,
2013-10-17 02:30:00,52.7,51.0,29.89,SSE,167,2.0,11.0,94,0.00,,,0.00,Wunderground v.1.15,2013-10-17 06:30:00,
2013-10-17 02:35:00,52.6,51.2,29.89,SSE,167,2.0,11.0,95,0.00,,,0.00,Wunderground v.1.15,2013-10-17 06:35:00,
2013-10-17 02:45:00,52.7,51.3,29.89,South,177,3.0,11.0,95,0.00,,,0.00,Wunderground v.1.15,2013-10-17 06:45:00,
2013-10-17 02:50:00,52.9,51.5,29.88,South,183,2.0,11.0,95,0.00,,,0.00,Wunderground v.1.15,2013-10-17 06:50:00,
2013-10-17 02:55:00,53.0,51.6,29.88,South,183,2.0,11.0,95,0.00,,,0.00,Wunderground v.1.15,2013-10-17 06:55:00,
2013-10-17 03:00:00,52.9,51.5,29.88,South,183,2.0,2.0,95,0.00,,,0.00,Wunderground v.1.15,2013-10-17 07:00:00,
2013-10-17 03:05:00,52.7,51.3,29.88,South,182,1.0,11.0,95,0.00,,,0.00,Wunderground v.1.15,2013-10-17 07:05:00,
2013-10-17 03:15:00,52.9,51.5,29.87,South,183,0.0,11.0,95,0.00,,,0.00,Wunderground v.1.15,2013-10-17 07:15:00,
2013-10-17 03:20:00,53.1,52.0,29.87,South,179,1.0,11.0,96,0.00,,,0.00,Wunderground v.1.15,2013-10-17 07:20:00,
2013-10-17 03:25:00,53.3,52.2,29.87,South,180,1.0,11.0,96,0.00,,,0.00,Wunderground v.1.15,2013-10-17 07:25:00,
2013-10-17 03:35:00,53.7,52.6,29.86,South,182,2.0,11.0,96,0.00,,,0.00,Wunderground v.1.15,2013-10-17 07:35:00,
2013-10-17 03:40:00,54.1,53.0,29.86,South,190,3.0,11.0,96,0.00,,,0.00,Wunderground v.1.15,2013-10-17 07:40:00,
2013-10-17 03:45:00,54.4,53.3,29.86,SSW,192,3.0,11.0,96,0.00,,,0.00,Wunderground v.1.15,2013-10-17 07:45:00,
2013-10-17 03:50:00,54.6,53.5,29.86,South,191,3.0,11.0,96,0.00,,,0.00,Wunderground v.1.15,2013-10-17 07:50:00,
2013-10-17 04:00:00,54.7,53.6,29.86,SSW,193,3.0,11.0,96,0.00,,,0.00,Wunderground v.1.15,2013-10-17 08:00:00,
2013-10-17 04:10:00,54.9,53.8,29.86,South,187,4.0,4.0,96,0.00,,,0.00,Wunderground v.1.15,2013-10-17 08:10:00,
2013-10-17 04:15:00,54.9,53.8,29.86,SSW,193,4.0,11.0,96,0.00,,,0.00,Wunderground v.1.15,2013-10-17 08:15:00,
2013-10-17 04:20:00,54.9,53.8,29.86,South,191,4.0,4.0,96,0.00,,,0.00,Wunderground v.1.15,2013-10-17 08:20:00,
2013-10-17 04:25:00,54.9,53.8,29.86,SSW,192,4.0,11.0,96,0.00,,,0.00,Wunderground v.1.15,2013-10-17 08:25:00,
2013-10-17 04:30:00,54.8,53.7,29.86,SW,215,3.0,3.0,96,0.00,,,0.00,Wunderground v.1.15,2013-10-17 08:30:00,
2013-10-17 04:40:00,54.7,53.6,29.85,SW,230,3.0,11.0,96,0.00,,,0.00,Wunderground v.1.15,2013-10-17 08:40:00,
2013-10-17 04:45:00,54.8,53.7,29.86,SSW,193,3.0,11.0,96,0.00,,,0.00,Wunderground v.1.15,2013-10-17 08:45:00,
2013-10-17 04:50:00,55.0,53.9,29.85,SSW,196,4.0,11.0,96,0.00,,,0.00,Wunderground v.1.15,2013-10-17 08:50:00,
2013-10-17 04:55:00,55.0,53.9,29.85,SSW,194,5.0,11.0,96,0.00,,,0.00,Wunderground v.1.15,2013-10-17 08:55:00,
2013-10-17 05:05:00,55.3,54.2,29.85,SSW,213,6.0,6.0,96,0.00,,,0.00,Wunderground v.1.15,2013-10-17 09:05:00,
2013-10-17 05:10:00,55.5,54.4,29.84,SSW,193,6.0,11.0,96,0.00,,,0.00,Wunderground v.1.15,2013-10-17 09:10:00,
2013-10-17 05:15:00,55.6,54.2,29.84,SSW,194,7.0,11.0,95,0.00,,,0.00,Wunderground v.1.15,2013-10-17 09:15:00,
2013-10-17 05:25:00,55.7,54.3,29.84,SSW,196,7.0,11.0,95,0.00,,,0.00,Wunderground v.1.15,2013-10-17 09:25:00,
2013-10-17 05:30:00,55.7,54.3,29.84,South,188,8.0,8.0,95,0.00,,,0.00,Wunderground v.1.15,2013-10-17 09:30:00,
2013-10-17 05:35:00,55.6,54.2,29.84,SW,215,7.0,10.0,95,0.00,,,0.00,Wunderground v.1.15,2013-10-17 09:35:00,
2013-10-17 05:40:00,55.7,54.3,29.84,South,182,7.0,13.0,95,0.00,,,0.00,Wunderground v.1.15,2013-10-17 09:40:00,
2013-10-17 05:45:00,55.8,54.4,29.84,South,182,8.0,13.0,95,0.00,,,0.00,Wunderground v.1.15,2013-10-17 09:45:00,
2013-10-17 05:55:00,55.9,54.5,29.84,SSW,205,7.0,11.0,95,0.00,,,0.00,Wunderground v.1.15,2013-10-17 09:55:00,
2013-10-17 06:00:00,56.0,54.6,29.83,SSW,193,7.0,7.0,95,0.00,,,0.00,Wunderground v.1.15,2013-10-17 10:00:00,
2013-10-17 06:10:00,56.0,54.3,29.84,SSW,194,8.0,11.0,94,0.00,,,0.00,Wunderground v.1.15,2013-10-17 10:10:00,
2013-10-17 06:20:00,55.9,54.5,29.85,SSW,197,6.0,6.0,95,0.00,,,0.00,Wunderground v.1.15,2013-10-17 10:20:00,
2013-10-17 06:25:00,56.0,54.6,29.85,SSW,196,5.0,11.0,95,0.00,,,0.00,Wunderground v.1.15,2013-10-17 10:25:00,
2013-10-17 06:30:00,56.0,54.3,29.85,SSW,212,5.0,5.0,94,0.00,,,0.00,Wunderground v.1.15,2013-10-17 10:30:00,
2013-10-17 06:35:00,56.1,54.7,29.85,WSW,245,5.0,7.0,95,0.00,,,0.00,Wunderground v.1.15,2013-10-17 10:35:00,
2013-10-17 06:40:00,56.2,54.8,29.85,SSW,199,6.0,11.0,95,0.00,,,0.00,Wunderground v.1.15,2013-10-17 10:40:00,
2013-10-17 06:45:00,56.4,55.0,29.85,SSW,194,8.0,11.0,95,0.00,,,0.00,Wunderground v.1.15,2013-10-17 10:45:00,
2013-10-17 06:55:00,56.7,55.3,29.85,South,183,8.0,11.0,95,0.00,,,0.00,Wunderground v.1.15,2013-10-17 10:55:00,
2013-10-17 07:00:00,56.9,55.5,29.84,South,190,8.0,8.0,95,0.00,,,0.00,Wunderground v.1.15,2013-10-17 11:00:00,
2013-10-17 07:05:00,57.0,55.6,29.84,South,185,7.0,10.0,95,0.00,,,0.00,Wunderground v.1.15,2013-10-17 11:05:00,
2013-10-17 07:15:00,57.3,55.9,29.85,SSW,197,9.0,11.0,95,0.00,,,0.00,Wunderground v.1.15,2013-10-17 11:15:00,
2013-10-17 07:20:00,57.3,55.6,29.85,South,179,11.0,11.0,94,0.00,,,0.00,Wunderground v.1.15,2013-10-17 11:20:00,
2013-10-17 07:25:00,57.3,55.6,29.85,SSW,196,11.0,11.0,94,0.00,,,0.00,Wunderground v.1.15,2013-10-17 11:25:00,
2013-10-17 07:30:00,57.3,55.9,29.85,SW,220,10.0,11.0,95,0.00,,,0.00,Wunderground v.1.15,2013-10-17 11:30:00,
2013-10-17 07:35:00,57.4,56.0,29.85,SSW,197,9.0,11.0,95,0.00,,,0.00,Wunderground v.1.15,2013-10-17 11:35:00,
2013-10-17 07:45:00,57.6,56.2,29.86,SSW,192,9.0,11.0,95,0.00,,,0.00,Wunderground v.1.15,2013-10-17 11:45:00,
2013-10-17 07:50:00,57.7,56.3,29.86,SW,215,9.0,11.0,95,0.00,,,0.00,Wunderground v.1.15,2013-10-17 11:50:00,
2013-10-17 07:55:00,57.8,56.1,29.86,SSW,198,9.0,11.0,94,0.00,,,0.00,Wunderground v.1.15,2013-10-17 11:55:00,
2013-10-17 08:00:00,57.8,56.1,29.86,SSW,198,8.0,11.0,94,0.00,,,0.00,Wunderground v.1.15,2013-10-17 12:00:00,
2013-10-17 08:05:00,57.9,56.2,29.86,SSW,208,9.0,11.0,94,0.00,,,0.00,Wunderground v.1.15,2013-10-17 12:05:00,
2013-10-17 08:15:00,58.2,56.5,29.86,WSW,238,8.0,11.0,94,0.00,,,0.00,Wunderground v.1.15,2013-10-17 12:15:00,
2013-10-17 08:20:00,58.5,56.8,29.86,SSW,194,7.0,12.0,94,0.00,,,0.00,Wunderground v.1.15,2013-10-17 12:20:00,
2013-10-17 08:25:00,58.7,57.0,29.86,SW,217,7.0,12.0,94,0.00,,,0.00,Wunderground v.1.15,2013-10-17 12:25:00,
2013-10-17 08:30:00,58.9,56.9,29.86,SSW,201,6.0,6.0,93,0.00,,,0.00,Wunderground v.1.15,2013-10-17 12:30:00,
2013-10-17 08:40:00,59.1,57.1,29.86,SW,226,6.0,11.0,93,0.00,,,0.00,Wunderground v.1.15,2013-10-17 12:40:00,
2013-10-17 08:45:00,59.2,57.2,29.86,WSW,245,6.0,11.0,93,0.00,,,0.00,Wunderground v.1.15,2013-10-17 12:45:00,
2013-10-17 08:50:00,59.4,57.1,29.86,SW,223,7.0,7.0,92,0.00,,,0.00,Wunderground v.1.15,2013-10-17 12:50:00,
2013-10-17 09:00:00,59.6,57.3,29.86,South,190,7.0,7.0,92,0.00,,,0.00,Wunderground v.1.15,2013-10-17 13:00:00,
2013-10-17 09:05:00,59.5,57.2,29.86,South,185,7.0,11.0,92,0.00,,,0.00,Wunderground v.1.15,2013-10-17 13:05:00,
2013-10-17 09:10:00,60.3,58.0,29.86,South,184,7.0,12.0,92,0.00,,,0.00,Wunderground v.1.15,2013-10-17 13:10:00,
2013-10-17 09:15:00,60.7,58.1,29.86,WSW,245,7.0,12.0,91,0.00,,,0.00,Wunderground v.1.15,2013-10-17 13:15:00,
2013-10-17 09:20:00,60.9,57.9,29.86,SSW,193,8.0,13.0,90,0.00,,,0.00,Wunderground v.1.15,2013-10-17 13:20:00,
2013-10-17 09:30:00,61.5,58.2,29.85,South,175,7.0,11.0,89,0.00,,,0.00,Wunderground v.1.15,2013-10-17 13:30:00,
2013-10-17 09:35:00,61.5,58.2,29.85,SW,221,7.0,11.0,89,0.00,,,0.00,Wunderground v.1.15,2013-10-17 13:35:00,
2013-10-17 09:40:00,61.9,58.6,29.85,WSW,250,7.0,11.0,89,0.00,,,0.00,Wunderground v.1.15,2013-10-17 13:40:00,
2013-10-17 09:45:00,62.0,58.4,29.86,South,176,6.0,11.0,88,0.00,,,0.00,Wunderground v.1.15,2013-10-17 13:45:00,
2013-10-17 09:55:00,61.6,58.3,29.86,SSW,203,6.0,11.0,89,0.00,,,0.00,Wunderground v.1.15,2013-10-17 13:55:00,
2013-10-17 10:00:00,61.6,58.3,29.86,SSW,212,6.0,11.0,89,0.00,,,0.00,Wunderground v.1.15,2013-10-17 14:00:00,
2013-10-17 10:05:00,61.8,58.5,29.86,South,184,6.0,11.0,89,0.00,,,0.00,Wunderground v.1.15,2013-10-17 14:05:00,
2013-10-17 10:10:00,62.3,58.7,29.86,South,182,5.0,12.0,88,0.00,,,0.00,Wunderground v.1.15,2013-10-17 14:10:00,
2013-10-17 10:20:00,62.5,58.6,29.85,SSW,201,5.0,5.0,87,0.00,,,0.00,Wunderground v.1.15,2013-10-17 14:20:00,
2013-10-17 10:25:00,62.3,58.4,29.85,SW,217,5.0,6.0,87,0.00,,,0.00,Wunderground v.1.15,2013-10-17 14:25:00,
2013-10-17 10:30:00,62.3,58.1,29.85,South,189,5.0,11.0,86,0.00,,,0.00,Wunderground v.1.15,2013-10-17 14:30:00,
2013-10-17 10:35:00,62.4,58.5,29.85,SW,219,5.0,11.0,87,0.00,,,0.00,Wunderground v.1.15,2013-10-17 14:35:00,
2013-10-17 10:45:00,62.3,58.1,29.85,WSW,250,4.0,12.0,86,0.00,,,0.00,Wunderground v.1.15,2013-10-17 14:45:00,
2013-10-17 10:50:00,62.7,58.5,29.85,South,182,6.0,6.0,86,0.00,,,0.00,Wunderground v.1.15,2013-10-17 14:50:00,
2013-10-17 10:55:00,63.5,58.2,29.85,SW,221,6.0,11.0,83,0.00,,,0.00,Wunderground v.1.15,2013-10-17 14:55:00,
2013-10-17 11:00:00,64.1,57.8,29.85,WSW,245,5.0,11.0,80,0.00,,,0.00,Wunderground v.1.15,2013-10-17 15:00:00,
2013-10-17 11:05:00,64.2,57.5,29.84,SW,217,5.0,11.0,79,0.00,,,0.00,Wunderground v.1.15,2013-10-17 15:05:00,
2013-10-17 11:15:00,65.0,57.2,29.84,SSW,192,5.0,11.0,76,0.00,,,0.00,Wunderground v.1.15,2013-10-17 15:15:00,
2013-10-17 11:20:00,64.3,56.6,29.84,SSW,200,6.0,11.0,76,0.00,,,0.00,Wunderground v.1.15,2013-10-17 15:20:00,
2013-10-17 11:25:00,64.0,56.6,29.84,WSW,250,7.0,11.0,77,0.00,,,0.00,Wunderground v.1.15,2013-10-17 15:25:00,
2013-10-17 11:30:00,64.3,56.6,29.84,SSW,197,6.0,6.0,76,0.00,,,0.00,Wunderground v.1.15,2013-10-17 15:30:00,
2013-10-17 11:40:00,65.1,56.6,29.84,WSW,240,5.0,11.0,74,0.00,,,0.00,Wunderground v.1.15,2013-10-17 15:40:00,
2013-10-17 11:45:00,65.3,56.8,29.84,West,261,6.0,11.0,74,0.00,,,0.00,Wunderground v.1.15,2013-10-17 15:45:00,
2013-10-17 11:50:00,65.8,56.5,29.83,SSW,194,5.0,11.0,72,0.00,,,0.00,Wunderground v.1.15,2013-10-17 15:50:00,
2013-10-17 12:00:00,66.5,56.8,29.83,SSW,211,5.0,11.0,71,0.00,,,0.00,Wunderground v.1.15,2013-10-17 16:00:00,
2013-10-17 12:05:00,67.1,57.4,29.83,SSW,208,6.0,11.0,71,0.00,,,0.00,Wunderground v.1.15,2013-10-17 16:05:00,
2013-10-17 12:10:00,67.7,56.8,29.82,SW,235,5.0,11.0,68,0.00,,,0.00,Wunderground v.1.15,2013-10-17 16:10:00,
2013-10-17 12:15:00,68.1,57.5,29.82,SW,236,5.0,11.0,69,0.00,,,0.00,Wunderground v.1.15,2013-10-17 16:15:00,
2013-10-17 12:20:00,68.3,56.9,29.82,SW,226,5.0,5.0,67,0.00,,,0.00,Wunderground v.1.15,2013-10-17 16:20:00,
2013-10-17 12:30:00,68.1,56.7,29.81,SSW,194,7.0,7.0,67,0.00,,,0.00,Wunderground v.1.15,2013-10-17 16:30:00,
2013-10-17 12:35:00,67.8,56.4,29.81,SW,220,7.0,11.0,67,0.00,,,0.00,Wunderground v.1.15,2013-10-17 16:35:00,
2013-10-17 12:40:00,67.8,56.0,29.81,WSW,255,7.0,11.0,66,0.00,,,0.00,Wunderground v.1.15,2013-10-17 16:40:00,
2013-10-17 12:45:00,67.8,55.6,29.81,SW,223,7.0,11.0,65,0.00,,,0.00,Wunderground v.1.15,2013-10-17 16:45:00,
2013-10-17 12:55:00,67.9,55.3,29.81,SW,236,7.0,11.0,64,0.00,,,0.00,Wunderground v.1.15,2013-10-17 16:55:00,
2013-10-17 13:00:00,68.5,55.8,29.80,WSW,237,6.0,6.0,64,0.00,,,0.00,Wunderground v.1.15,2013-10-17 17:00:00,
2013-10-17 13:05:00,68.8,55.7,29.80,WSW,238,5.0,11.0,63,0.00,,,0.00,Wunderground v.1.15,2013-10-17 17:05:00,
2013-10-17 13:10:00,69.2,55.6,29.80,SSW,197,5.0,5.0,62,0.00,,,0.00,Wunderground v.1.15,2013-10-17 17:10:00,
2013-10-17 13:20:00,68.8,54.8,29.80,SW,231,6.0,6.0,61,0.00,,,0.00,Wunderground v.1.15,2013-10-17 17:20:00,
2013-10-17 13:25:00,68.9,54.4,29.79,SSW,208,7.0,10.0,60,0.00,,,0.00,Wunderground v.1.15,2013-10-17 17:25:00,
2013-10-17 13:30:00,69.0,54.5,29.79,WSW,250,7.0,7.0,60,0.00,,,0.00,Wunderground v.1.15,2013-10-17 17:30:00,
2013-10-17 13:35:00,68.9,54.4,29.79,SSW,211,8.0,8.0,60,0.00,,,0.00,Wunderground v.1.15,2013-10-17 17:35:00,
2013-10-17 13:45:00,69.4,54.9,29.78,SW,234,8.0,11.0,60,0.00,,,0.00,Wunderground v.1.15,2013-10-17 17:45:00,
2013-10-17 13:50:00,69.6,55.1,29.78,SW,220,7.0,7.0,60,0.00,,,0.00,Wunderground v.1.15,2013-10-17 17:50:00,
2013-10-17 13:55:00,69.6,55.1,29.78,South,186,7.0,10.0,60,0.00,,,0.00,Wunderground v.1.15,2013-10-17 17:55:00,
2013-10-17 14:00:00,69.7,54.7,29.78,West,275,7.0,7.0,59,0.00,,,0.00,Wunderground v.1.15,2013-10-17 18:00:00,
2013-10-17 14:05:00,69.5,54.5,29.78,West,261,7.0,9.0,59,0.00,,,0.00,Wunderground v.1.15,2013-10-17 18:05:00,
2013-10-17 14:15:00,69.6,54.6,29.78,SW,233,8.0,11.0,59,0.00,,,0.00,Wunderground v.1.15,2013-10-17 18:15:00,
2013-10-17 14:20:00,69.7,54.7,29.78,SW,235,7.0,12.0,59,0.00,,,0.00,Wunderground v.1.15,2013-10-17 18:20:00,
2013-10-17 14:25:00,69.7,54.7,29.78,SW,226,7.0,12.0,59,0.00,,,0.00,Wunderground v.1.15,2013-10-17 18:25:00,
2013-10-17 14:30:00,70.1,54.6,29.78,West,259,6.0,11.0,58,0.00,,,0.00,Wunderground v.1.15,2013-10-17 18:30:00,
2013-10-17 14:40:00,70.4,54.9,29.77,WSW,241,7.0,7.0,58,0.00,,,0.00,Wunderground v.1.15,2013-10-17 18:40:00,
2013-10-17 14:45:00,70.6,54.1,29.77,WSW,245,6.0,9.0,56,0.00,,,0.00,Wunderground v.1.15,2013-10-17 18:45:00,
2013-10-17 14:50:00,70.6,53.6,29.77,SW,227,6.0,11.0,55,0.00,,,0.00,Wunderground v.1.15,2013-10-17 18:50:00,
2013-10-17 14:55:00,70.3,52.9,29.77,SW,218,7.0,11.0,54,0.00,,,0.00,Wunderground v.1.15,2013-10-17 18:55:00,
2013-10-17 15:05:00,70.3,52.9,29.77,SSW,203,7.0,11.0,54,0.00,,,0.00,Wunderground v.1.15,2013-10-17 19:05:00,
2013-10-17 15:10:00,70.3,52.9,29.77,SW,232,6.0,6.0,54,0.00,,,0.00,Wunderground v.1.15,2013-10-17 19:10:00,
2013-10-17 15:15:00,70.1,52.7,29.77,SSW,195,6.0,11.0,54,0.00,,,0.00,Wunderground v.1.15,2013-10-17 19:15:00,
2013-10-17 15:20:00,70.3,52.9,29.77,SSE,160,5.0,12.0,54,0.00,,,0.00,Wunderground v.1.15,2013-10-17 19:20:00,
2013-10-17 15:30:00,70.5,53.6,29.76,SSW,205,7.0,7.0,55,0.00,,,0.00,Wunderground v.1.15,2013-10-17 19:30:00,
2013-10-17 15:35:00,70.5,53.1,29.76,WSW,241,6.0,11.0,54,0.00,,,0.00,Wunderground v.1.15,2013-10-17 19:35:00,
2013-10-17 15:40:00,70.5,53.6,29.76,South,188,4.0,11.0,55,0.00,,,0.00,Wunderground v.1.15,2013-10-17 19:40:00,
2013-10-17 15:45:00,70.7,53.2,29.76,South,180,5.0,11.0,54,0.00,,,0.00,Wunderground v.1.15,2013-10-17 19:45:00,
2013-10-17 15:50:00,70.8,53.3,29.76,SSW,200,4.0,11.0,54,0.00,,,0.00,Wunderground v.1.15,2013-10-17 19:50:00,
2013-10-17 16:00:00,70.6,53.1,29.76,WSW,250,5.0,11.0,54,0.00,,,0.00,Wunderground v.1.15,2013-10-17 20:00:00,
2013-10-17 16:05:00,70.5,53.1,29.76,SW,215,5.0,11.0,54,0.00,,,0.00,Wunderground v.1.15,2013-10-17 20:05:00,
2013-10-17 16:10:00,70.5,53.1,29.76,South,190,4.0,11.0,54,0.00,,,0.00,Wunderground v.1.15,2013-10-17 20:10:00,
2013-10-17 16:20:00,70.5,53.1,29.76,SSW,192,5.0,5.0,54,0.00,,,0.00,Wunderground v.1.15,2013-10-17 20:20:00,
2013-10-17 16:30:00,70.4,53.0,29.76,SSW,211,4.0,11.0,54,0.00,,,0.00,Wunderground v.1.15,2013-10-17 20:30:00,
2013-10-17 16:35:00,70.1,53.7,29.76,SW,217,5.0,11.0,56,0.00,,,0.00,Wunderground v.1.15,2013-10-17 20:35:00,
2013-10-17 16:45:00,69.8,53.9,29.76,SSW,200,4.0,11.0,57,0.00,,,0.00,Wunderground v.1.15,2013-10-17 20:45:00,
2013-10-17 16:50:00,69.9,54.0,29.76,WSW,245,3.0,3.0,57,0.00,,,0.00,Wunderground v.1.15,2013-10-17 20:50:00,
2013-10-17 16:55:00,70.0,54.5,29.76,SW,224,2.0,4.0,58,0.00,,,0.00,Wunderground v.1.15,2013-10-17 20:55:00,
2013-10-17 17:00:00,69.8,54.4,29.76,SSW,196,2.0,2.0,58,0.00,,,0.00,Wunderground v.1.15,2013-10-17 21:00:00,
2013-10-17 17:05:00,69.7,54.3,29.76,SW,231,2.0,5.0,58,0.00,,,0.00,Wunderground v.1.15,2013-10-17 21:05:00,
2013-10-17 17:15:00,69.0,55.0,29.76,SSW,194,3.0,11.0,61,0.00,,,0.00,Wunderground v.1.15,2013-10-17 21:15:00,
2013-10-17 17:20:00,68.4,54.9,29.75,SSW,193,3.0,3.0,62,0.00,,,0.00,Wunderground v.1.15,2013-10-17 21:20:00,
2013-10-17 17:25:00,67.8,54.7,29.75,SSW,213,3.0,11.0,63,0.00,,,0.00,Wunderground v.1.15,2013-10-17 21:25:00,
2013-10-17 17:30:00,67.3,54.7,29.75,SW,232,2.0,2.0,64,0.00,,,0.00,Wunderground v.1.15,2013-10-17 21:30:00,
2013-10-17 17:35:00,66.8,54.7,29.75,SW,232,2.0,11.0,65,0.00,,,0.00,Wunderground v.1.15,2013-10-17 21:35:00,
2013-10-17 17:45:00,66.2,54.9,29.75,SW,227,1.0,11.0,67,0.00,,,0.00,Wunderground v.1.15,2013-10-17 21:45:00,
2013-10-17 17:50:00,65.8,54.9,29.76,SW,227,1.0,1.0,68,0.00,,,0.00,Wunderground v.1.15,2013-10-17 21:50:00,
2013-10-17 18:00:00,65.1,54.7,29.76,SW,227,0.0,11.0,69,0.00,,,0.00,Wunderground v.1.15,2013-10-17 22:00:00,
2013-10-17 18:05:00,64.7,54.7,29.76,SW,227,0.0,11.0,70,0.00,,,0.00,Wunderground v.1.15,2013-10-17 22:05:00,
2013-10-17 18:10:00,64.4,54.8,29.76,SW,227,0.0,11.0,71,0.00,,,0.00,Wunderground v.1.15,2013-10-17 22:10:00,
2013-10-17 18:15:00,64.1,54.5,29.76,SW,227,0.0,11.0,71,0.00,,,0.00,Wunderground v.1.15,2013-10-17 22:15:00,
2013-10-17 18:25:00,63.8,55.0,29.77,SW,227,0.0,11.0,73,0.00,,,0.00,Wunderground v.1.15,2013-10-17 22:25:00,
2013-10-17 18:30:00,63.4,54.6,29.77,SW,227,0.0,11.0,73,0.00,,,0.00,Wunderground v.1.15,2013-10-17 22:30:00,
2013-10-17 18:35:00,63.0,54.2,29.77,SW,227,0.0,11.0,73,0.00,,,0.00,Wunderground v.1.15,2013-10-17 22:35:00,
2013-10-17 18:45:00,62.4,54.4,29.77,SW,227,0.0,11.0,75,0.00,,,0.00,Wunderground v.1.15,2013-10-17 22:45:00,
2013-10-17 18:50:00,62.3,54.3,29.77,SW,227,0.0,11.0,75,0.00,,,0.00,Wunderground v.1.15,2013-10-17 22:50:00,
2013-10-17 18:55:00,62.1,54.4,29.76,SW,227,0.0,11.0,76,0.00,,,0.00,Wunderground v.1.15,2013-10-17 22:55:00,
2013-10-17 19:00:00,62.2,54.5,29.76,SW,227,0.0,11.0,76,0.00,,,0.00,Wunderground v.1.15,2013-10-17 23:00:00,
2013-10-17 19:10:00,62.0,54.7,29.76,SW,227,0.0,11.0,77,0.00,,,0.00,Wunderground v.1.15,2013-10-17 23:10:00,
2013-10-17 19:15:00,61.6,54.7,29.76,SW,227,1.0,11.0,78,0.00,,,0.00,Wunderground v.1.15,2013-10-17 23:15:00,
2013-10-17 19:20:00,60.9,54.3,29.76,SW,227,1.0,11.0,79,0.00,,,0.00,Wunderground v.1.15,2013-10-17 23:20:00,
2013-10-17 19:25:00,60.5,54.3,29.76,SW,227,2.0,11.0,80,0.00,,,0.00,Wunderground v.1.15,2013-10-17 23:25:00,
2013-10-17 19:30:00,60.8,54.6,29.76,SW,227,2.0,2.0,80,0.00,,,0.00,Wunderground v.1.15,2013-10-17 23:30:00,
2013-10-17 19:40:00,61.7,54.8,29.76,SW,227,1.0,11.0,78,0.00,,,0.00,Wunderground v.1.15,2013-10-17 23:40:00,
2013-10-17 19:45:00,60.4,54.2,29.76,SW,227,2.0,11.0,80,0.00,,,0.00,Wunderground v.1.15,2013-10-17 23:45:00,
2013-10-17 19:50:00,60.1,54.2,29.76,SW,227,2.0,11.0,81,0.00,,,0.00,Wunderground v.1.15,2013-10-17 23:50:00,
2013-10-17 19:55:00,60.4,54.5,29.76,SW,227,1.0,11.0,81,0.00,,,0.00,Wunderground v.1.15,2013-10-17 23:55:00,
2013-10-17 20:05:00,61.4,54.8,29.76,SW,227,0.0,11.0,79,0.00,,,0.00,Wunderground v.1.15,2013-10-18 00:05:00,
2013-10-17 20:10:00,60.8,54.6,29.76,SW,227,0.0,11.0,80,0.00,,,0.00,Wunderground v.1.15,2013-10-18 00:10:00,
2013-10-17 20:15:00,60.2,54.3,29.75,SW,223,1.0,11.0,81,0.00,,,0.00,Wunderground v.1.15,2013-10-18 00:15:00,
2013-10-17 20:25:00,60.3,54.8,29.76,South,191,2.0,11.0,82,0.00,,,0.00,Wunderground v.1.15,2013-10-18 00:25:00,
2013-10-17 20:30:00,61.0,55.1,29.76,South,191,2.0,2.0,81,0.00,,,0.00,Wunderground v.1.15,2013-10-18 00:30:00,
2013-10-17 20:35:00,61.3,55.4,29.76,South,191,2.0,11.0,81,0.00,,,0.00,Wunderground v.1.15,2013-10-18 00:35:00,
2013-10-17 20:40:00,61.2,55.0,29.76,South,191,2.0,11.0,80,0.00,,,0.00,Wunderground v.1.15,2013-10-18 00:40:00,
2013-10-17 20:50:00,60.7,54.8,29.75,South,190,2.0,11.0,81,0.00,,,0.00,Wunderground v.1.15,2013-10-18 00:50:00,
2013-10-17 20:55:00,60.2,55.0,29.75,South,191,1.0,11.0,83,0.00,,,0.00,Wunderground v.1.15,2013-10-18 00:55:00,
2013-10-17 21:00:00,60.0,55.2,29.76,South,191,2.0,11.0,84,0.00,,,0.00,Wunderground v.1.15,2013-10-18 01:00:00,
2013-10-17 21:05:00,60.2,55.3,29.75,South,191,2.0,11.0,84,0.00,,,0.00,Wunderground v.1.15,2013-10-18 01:05:00,
2013-10-17 21:10:00,60.5,55.6,29.75,South,191,3.0,3.0,84,0.00,,,0.00,Wunderground v.1.15,2013-10-18 01:10:00,
2013-10-17 21:20:00,60.4,55.9,29.75,South,190,3.0,11.0,85,0.00,,,0.00,Wunderground v.1.15,2013-10-18 01:20:00,
2013-10-17 21:25:00,60.4,55.9,29.75,South,188,3.0,11.0,85,0.00,,,0.00,Wunderground v.1.15,2013-10-18 01:25:00,
2013-10-17 21:30:00,60.3,56.1,29.75,South,188,2.0,11.0,86,0.00,,,0.00,Wunderground v.1.15,2013-10-18 01:30:00,
2013-10-17 21:35:00,60.3,56.1,29.74,South,186,2.0,11.0,86,0.00,,,0.00,Wunderground v.1.15,2013-10-18 01:35:00,
2013-10-17 21:45:00,60.1,56.2,29.75,South,178,3.0,11.0,87,0.00,,,0.00,Wunderground v.1.15,2013-10-18 01:45:00,
2013-10-17 21:55:00,60.1,56.2,29.74,South,174,3.0,11.0,87,0.00,,,0.00,Wunderground v.1.15,2013-10-18 01:55:00,
2013-10-17 22:05:00,60.0,56.4,29.73,South,176,3.0,11.0,88,0.00,,,0.00,Wunderground v.1.15,2013-10-18 02:05:00,
2013-10-17 22:10:00,60.0,56.4,29.72,SSE,166,3.0,11.0,88,0.00,,,0.00,Wunderground v.1.15,2013-10-18 02:10:00,
2013-10-17 22:20:00,60.0,56.7,29.73,South,173,3.0,11.0,89,0.00,,,0.00,Wunderground v.1.15,2013-10-18 02:20:00,
2013-10-17 22:25:00,59.9,57.0,29.73,South,181,3.0,11.0,90,0.00,,,0.00,Wunderground v.1.15,2013-10-18 02:25:00,
2013-10-17 22:30:00,59.9,57.3,29.73,South,175,4.0,11.0,91,0.00,,,0.00,Wunderground v.1.15,2013-10-18 02:30:00,
2013-10-17 22:35:00,59.8,57.2,29.72,SSE,163,4.0,11.0,91,0.00,,,0.00,Wunderground v.1.15,2013-10-18 02:35:00,
2013-10-17 22:45:00,59.4,56.8,29.72,SSE,153,3.0,11.0,91,0.00,,,0.00,Wunderground v.1.15,2013-10-18 02:45:00,
2013-10-17 22:50:00,59.2,56.6,29.72,SSE,153,3.0,3.0,91,0.00,,,0.00,Wunderground v.1.15,2013-10-18 02:50:00,
2013-10-17 23:00:00,58.9,56.6,29.72,SSE,163,3.0,11.0,92,0.00,,,0.00,Wunderground v.1.15,2013-10-18 03:00:00,
2013-10-17 23:10:00,58.9,56.9,29.71,South,174,4.0,11.0,93,0.00,,,0.00,Wunderground v.1.15,2013-10-18 03:10:00,
2013-10-17 23:15:00,58.9,56.9,29.71,SSE,162,4.0,11.0,93,0.00,,,0.00,Wunderground v.1.15,2013-10-18 03:15:00,
2013-10-17 23:20:00,58.8,56.8,29.72,SE,140,5.0,11.0,93,0.00,,,0.00,Wunderground v.1.15,2013-10-18 03:20:00,
2013-10-17 23:25:00,59.0,57.3,29.71,South,169,6.0,11.0,94,0.00,,,0.00,Wunderground v.1.15,2013-10-18 03:25:00,
2013-10-17 23:30:00,59.1,57.4,29.71,SSE,157,7.0,11.0,94,0.00,,,0.00,Wunderground v.1.15,2013-10-18 03:30:00,
2013-10-17 23:35:00,59.3,57.6,29.71,SSE,158,7.0,11.0,94,0.00,,,0.00,Wunderground v.1.15,2013-10-18 03:35:00,
2013-10-17 23:45:00,59.3,57.6,29.71,SSE,159,8.0,11.0,94,0.00,,,0.00,Wunderground v.1.15,2013-10-18 03:45:00,
2013-10-17 23:50:00,59.3,57.9,29.71,South,170,8.0,8.0,95,0.00,,,0.01,Wunderground v.1.15,2013-10-18 03:50:00,
2013-10-17 23:55:00,59.2,57.8,29.71,SSE,167,6.0,11.0,95,0.00,,,0.01,Wunderground v.1.15,2013-10-18 03:55:00,